Year,Month,Day,Hour,Minute,Value (Times are PST for temperature in C)
2009,03,18,00,00,3.40
2009,03,18,00,01,3.40
2009,03,18,00,02,3.40
2009,03,18,00,03,3.40
2009,03,18,00,04,3.40
2009,03,18,00,05,3.40
2009,03,18,00,06,3.40
2009,03,18,00,07,3.40
2009,03,18,00,08,3.40
2009,03,18,00,09,3.40
2009,03,18,00,10,3.40
2009,03,18,00,11,3.40
2009,03,18,00,12,3.40
2009,03,18,00,13,3.40
2009,03,18,00,14,3.40
2009,03,18,00,15,3.40
2009,03,18,00,16,3.40
2009,03,18,00,17,3.40
2009,03,18,00,18,3.50
2009,03,18,00,19,3.50
2009,03,18,00,20,3.50
2009,03,18,00,21,3.60
2009,03,18,00,22,3.60
2009,03,18,00,23,3.70
2009,03,18,00,24,3.70
2009,03,18,00,25,3.70
2009,03,18,00,26,3.70
2009,03,18,00,27,3.70
2009,03,18,00,28,3.60
2009,03,18,00,29,3.60
2009,03,18,00,30,3.60
2009,03,18,00,31,3.60
2009,03,18,00,32,3.60
2009,03,18,00,33,3.60
2009,03,18,00,34,3.70
2009,03,18,00,35,3.70
2009,03,18,00,36,3.70
2009,03,18,00,37,3.80
2009,03,18,00,38,3.80
2009,03,18,00,39,3.80
2009,03,18,00,40,3.80
2009,03,18,00,41,3.80
2009,03,18,00,42,3.80
2009,03,18,00,43,3.80
2009,03,18,00,44,3.80
2009,03,18,00,45,3.80
2009,03,18,00,46,3.80
2009,03,18,00,47,3.80
2009,03,18,00,48,3.80
2009,03,18,00,49,3.80
2009,03,18,00,50,3.80
2009,03,18,00,51,3.80
2009,03,18,00,52,3.80
2009,03,18,00,53,3.80
2009,03,18,00,54,3.80
2009,03,18,00,55,3.70
2009,03,18,00,56,3.70
2009,03,18,00,57,3.70
2009,03,18,00,58,3.60
2009,03,18,00,59,3.60
2009,03,18,01,00,3.60
2009,03,18,01,01,3.50
2009,03,18,01,02,3.50
2009,03,18,01,03,3.50
2009,03,18,01,04,3.40
2009,03,18,01,05,3.40
2009,03,18,01,06,3.40
2009,03,18,01,07,3.40
2009,03,18,01,08,3.40
2009,03,18,01,09,3.40
2009,03,18,01,10,3.40
2009,03,18,01,11,3.40
2009,03,18,01,12,3.40
2009,03,18,01,13,3.40
2009,03,18,01,14,3.40
2009,03,18,01,15,3.40
2009,03,18,01,16,3.40
2009,03,18,01,17,3.40
2009,03,18,01,18,3.40
2009,03,18,01,19,3.40
2009,03,18,01,20,3.40
2009,03,18,01,21,3.40
2009,03,18,01,22,3.40
2009,03,18,01,23,3.40
2009,03,18,01,24,3.40
2009,03,18,01,25,3.40
2009,03,18,01,26,3.30
2009,03,18,01,27,3.30
2009,03,18,01,28,3.30
2009,03,18,01,29,3.30
2009,03,18,01,30,3.30
2009,03,18,01,31,3.30
2009,03,18,01,32,3.30
2009,03,18,01,33,3.30
2009,03,18,01,34,3.30
2009,03,18,01,35,3.30
2009,03,18,01,36,3.30
2009,03,18,01,37,3.30
2009,03,18,01,38,3.30
2009,03,18,01,39,3.30
2009,03,18,01,40,3.20
2009,03,18,01,41,3.20
2009,03,18,01,42,3.20
2009,03,18,01,43,3.20
2009,03,18,01,44,3.20
2009,03,18,01,45,3.20
2009,03,18,01,46,3.20
2009,03,18,01,47,3.20
2009,03,18,01,48,3.20
2009,03,18,01,49,3.20
2009,03,18,01,50,3.20
2009,03,18,01,51,3.30
2009,03,18,01,52,3.30
2009,03,18,01,53,3.40
2009,03,18,01,54,3.40
2009,03,18,01,55,3.60
2009,03,18,01,56,3.60
2009,03,18,01,57,3.70
2009,03,18,01,58,3.80
2009,03,18,01,59,3.80
2009,03,18,02,00,4.00
2009,03,18,02,01,4.00
2009,03,18,02,02,4.10
2009,03,18,02,03,4.10
2009,03,18,02,04,4.10
2009,03,18,02,05,4.10
2009,03,18,02,06,4.10
2009,03,18,02,07,4.20
2009,03,18,02,08,4.20
2009,03,18,02,09,4.20
2009,03,18,02,10,4.20
2009,03,18,02,11,4.20
2009,03,18,02,12,4.20
2009,03,18,02,13,4.20
2009,03,18,02,14,4.20
2009,03,18,02,15,4.30
2009,03,18,02,16,4.30
2009,03,18,02,17,4.40
2009,03,18,02,18,4.50
2009,03,18,02,19,4.50
2009,03,18,02,20,4.60
2009,03,18,02,21,4.60
2009,03,18,02,22,4.60
2009,03,18,02,23,4.60
2009,03,18,02,24,4.70
2009,03,18,02,25,4.70
2009,03,18,02,26,4.80
2009,03,18,02,27,4.80
2009,03,18,02,28,4.80
2009,03,18,02,29,4.90
2009,03,18,02,30,4.90
2009,03,18,02,31,4.90
2009,03,18,02,32,4.90
2009,03,18,02,33,4.90
2009,03,18,02,34,5.00
2009,03,18,02,35,5.10
2009,03,18,02,36,5.10
2009,03,18,02,37,5.10
2009,03,18,02,38,5.10
2009,03,18,02,39,5.10
2009,03,18,02,40,5.10
2009,03,18,02,41,5.10
2009,03,18,02,42,5.10
2009,03,18,02,43,5.10
2009,03,18,02,44,5.10
2009,03,18,02,45,5.10
2009,03,18,02,46,5.10
2009,03,18,02,47,5.10
2009,03,18,02,48,5.10
2009,03,18,02,49,5.10
2009,03,18,02,50,5.10
2009,03,18,02,51,5.10
2009,03,18,02,52,5.10
2009,03,18,02,53,5.10
2009,03,18,02,54,5.10
2009,03,18,02,55,5.10
2009,03,18,02,56,5.10
2009,03,18,02,57,5.10
2009,03,18,02,58,5.10
2009,03,18,02,59,5.10
2009,03,18,03,00,5.10
2009,03,18,03,01,5.10
2009,03,18,03,02,5.10
2009,03,18,03,03,5.20
2009,03,18,03,04,5.20
2009,03,18,03,05,5.20
2009,03,18,03,06,5.20
2009,03,18,03,07,5.20
2009,03,18,03,08,5.20
2009,03,18,03,09,5.20
2009,03,18,03,10,5.20
2009,03,18,03,11,5.20
2009,03,18,03,12,5.10
2009,03,18,03,13,5.10
2009,03,18,03,14,5.10
2009,03,18,03,15,5.10
2009,03,18,03,16,5.10
2009,03,18,03,17,5.10
2009,03,18,03,18,5.00
2009,03,18,03,19,4.90
2009,03,18,03,20,4.90
2009,03,18,03,21,4.90
2009,03,18,03,22,4.90
2009,03,18,03,23,4.90
2009,03,18,03,24,4.90
2009,03,18,03,25,4.90
2009,03,18,03,26,4.90
2009,03,18,03,27,4.90
2009,03,18,03,28,4.80
2009,03,18,03,29,4.80
2009,03,18,03,30,4.80
2009,03,18,03,31,4.80
2009,03,18,03,32,4.80
2009,03,18,03,33,4.80
2009,03,18,03,34,4.80
2009,03,18,03,35,4.80
2009,03,18,03,36,4.80
2009,03,18,03,37,4.80
2009,03,18,03,38,4.80
2009,03,18,03,39,4.80
2009,03,18,03,40,4.80
2009,03,18,03,41,4.80
2009,03,18,03,42,4.90
2009,03,18,03,43,4.90
2009,03,18,03,44,4.90
2009,03,18,03,45,4.90
2009,03,18,03,46,4.90
2009,03,18,03,47,4.90
2009,03,18,03,48,4.90
2009,03,18,03,49,4.90
2009,03,18,03,50,4.90
2009,03,18,03,51,5.10
2009,03,18,03,52,5.10
2009,03,18,03,53,5.10
2009,03,18,03,54,5.10
2009,03,18,03,55,5.00
2009,03,18,03,56,4.90
2009,03,18,03,57,4.90
2009,03,18,03,58,4.90
2009,03,18,03,59,4.90
2009,03,18,04,00,4.90
2009,03,18,04,01,4.90
2009,03,18,04,02,5.00
2009,03,18,04,03,5.00
2009,03,18,04,04,5.10
2009,03,18,04,05,5.10
2009,03,18,04,06,5.10
2009,03,18,04,07,5.10
2009,03,18,04,08,5.10
2009,03,18,04,09,5.10
2009,03,18,04,10,5.10
2009,03,18,04,11,5.10
2009,03,18,04,12,5.10
2009,03,18,04,13,5.10
2009,03,18,04,14,5.10
2009,03,18,04,15,5.10
2009,03,18,04,16,5.10
2009,03,18,04,17,5.10
2009,03,18,04,18,5.10
2009,03,18,04,19,5.10
2009,03,18,04,20,5.10
2009,03,18,04,21,5.10
2009,03,18,04,22,5.10
2009,03,18,04,23,5.10
2009,03,18,04,24,5.10
2009,03,18,04,25,5.10
2009,03,18,04,26,5.10
2009,03,18,04,27,5.10
2009,03,18,04,28,5.10
2009,03,18,04,29,5.10
2009,03,18,04,30,5.10
2009,03,18,04,31,5.10
2009,03,18,04,32,5.10
2009,03,18,04,33,5.10
2009,03,18,04,34,5.10
2009,03,18,04,35,5.10
2009,03,18,04,36,5.10
2009,03,18,04,37,5.10
2009,03,18,04,38,5.10
2009,03,18,04,39,5.10
2009,03,18,04,40,5.10
2009,03,18,04,41,5.10
2009,03,18,04,42,5.10
2009,03,18,04,43,5.10
2009,03,18,04,44,5.10
2009,03,18,04,45,5.10
2009,03,18,04,46,5.10
2009,03,18,04,47,5.10
2009,03,18,04,48,5.10
2009,03,18,04,49,5.10
2009,03,18,04,50,5.10
2009,03,18,04,51,5.10
2009,03,18,04,52,5.10
2009,03,18,04,53,5.10
2009,03,18,04,54,5.10
2009,03,18,04,55,5.10
2009,03,18,04,56,5.10
2009,03,18,04,57,5.10
2009,03,18,04,58,5.20
2009,03,18,04,59,5.20
2009,03,18,05,00,5.20
2009,03,18,05,01,5.20
2009,03,18,05,02,5.20
2009,03,18,05,03,5.20
2009,03,18,05,04,5.20
2009,03,18,05,05,5.20
2009,03,18,05,06,5.20
2009,03,18,05,07,5.10
2009,03,18,05,08,5.10
2009,03,18,05,09,5.10
2009,03,18,05,10,5.10
2009,03,18,05,11,5.10
2009,03,18,05,12,5.10
2009,03,18,05,13,5.10
2009,03,18,05,14,5.10
2009,03,18,05,15,5.10
2009,03,18,05,16,5.10
2009,03,18,05,17,5.10
2009,03,18,05,18,5.10
2009,03,18,05,19,5.10
2009,03,18,05,20,5.10
2009,03,18,05,21,5.10
2009,03,18,05,22,5.10
2009,03,18,05,23,5.10
2009,03,18,05,24,5.10
2009,03,18,05,25,5.10
2009,03,18,05,26,5.10
2009,03,18,05,27,5.10
2009,03,18,05,28,5.10
2009,03,18,05,29,5.10
2009,03,18,05,30,5.10
2009,03,18,05,31,5.10
2009,03,18,05,32,5.10
2009,03,18,05,33,5.10
2009,03,18,05,34,5.10
2009,03,18,05,35,5.10
2009,03,18,05,36,5.10
2009,03,18,05,37,5.10
2009,03,18,05,38,5.10
2009,03,18,05,39,5.10
2009,03,18,05,40,5.10
2009,03,18,05,41,5.10
2009,03,18,05,42,5.20
2009,03,18,05,43,5.20
2009,03,18,05,44,5.20
2009,03,18,05,45,5.20
2009,03,18,05,46,5.20
2009,03,18,05,47,5.20
2009,03,18,05,48,5.20
2009,03,18,05,49,5.20
2009,03,18,05,50,5.20
2009,03,18,05,51,5.20
2009,03,18,05,52,5.30
2009,03,18,05,53,5.30
2009,03,18,05,54,5.30
2009,03,18,05,55,5.30
2009,03,18,05,56,5.30
2009,03,18,05,57,5.30
2009,03,18,05,58,5.30
2009,03,18,05,59,5.30
2009,03,18,06,00,5.30
2009,03,18,06,01,5.30
2009,03,18,06,02,5.30
2009,03,18,06,03,5.30
2009,03,18,06,04,5.30
2009,03,18,06,05,5.30
2009,03,18,06,06,5.30
2009,03,18,06,07,5.30
2009,03,18,06,08,5.30
2009,03,18,06,09,5.30
2009,03,18,06,10,5.30
2009,03,18,06,11,5.30
2009,03,18,06,12,5.40
2009,03,18,06,13,5.40
2009,03,18,06,14,5.40
2009,03,18,06,15,5.40
2009,03,18,06,16,5.40
2009,03,18,06,17,5.40
2009,03,18,06,18,5.40
2009,03,18,06,19,5.40
2009,03,18,06,20,5.50
2009,03,18,06,21,5.50
2009,03,18,06,22,5.50
2009,03,18,06,23,5.50
2009,03,18,06,24,5.50
2009,03,18,06,25,5.40
2009,03,18,06,26,5.40
2009,03,18,06,27,5.40
2009,03,18,06,28,5.40
2009,03,18,06,29,5.40
2009,03,18,06,30,5.40
2009,03,18,06,31,5.40
2009,03,18,06,32,5.40
2009,03,18,06,33,5.40
2009,03,18,06,34,5.40
2009,03,18,06,35,5.40
2009,03,18,06,36,5.40
2009,03,18,06,37,5.40
2009,03,18,06,38,5.40
2009,03,18,06,39,5.40
2009,03,18,06,40,5.40
2009,03,18,06,41,5.40
2009,03,18,06,42,5.40
2009,03,18,06,43,5.40
2009,03,18,06,44,5.40
2009,03,18,06,45,5.40
2009,03,18,06,46,5.40
2009,03,18,06,47,5.40
2009,03,18,06,48,5.40
2009,03,18,06,49,5.40
2009,03,18,06,50,5.40
2009,03,18,06,51,5.40
2009,03,18,06,52,5.40
2009,03,18,06,53,5.40
2009,03,18,06,54,5.40
2009,03,18,06,55,5.40
2009,03,18,06,56,5.40
2009,03,18,06,57,5.40
2009,03,18,06,58,5.40
2009,03,18,06,59,5.40
2009,03,18,07,00,5.40
2009,03,18,07,01,5.40
2009,03,18,07,02,5.40
2009,03,18,07,03,5.40
2009,03,18,07,04,5.40
2009,03,18,07,05,5.50
2009,03,18,07,06,5.50
2009,03,18,07,07,5.50
2009,03,18,07,08,5.50
2009,03,18,07,09,5.50
2009,03,18,07,10,5.50
2009,03,18,07,11,5.50
2009,03,18,07,12,5.50
2009,03,18,07,13,5.60
2009,03,18,07,14,5.60
2009,03,18,07,15,5.60
2009,03,18,07,16,5.60
2009,03,18,07,17,5.60
2009,03,18,07,18,5.70
2009,03,18,07,19,5.70
2009,03,18,07,20,5.70
2009,03,18,07,21,5.70
2009,03,18,07,22,5.70
2009,03,18,07,23,5.70
2009,03,18,07,24,5.70
2009,03,18,07,25,5.70
2009,03,18,07,26,5.70
2009,03,18,07,27,5.70
2009,03,18,07,28,5.70
2009,03,18,07,29,5.70
2009,03,18,07,30,5.70
2009,03,18,07,31,5.70
2009,03,18,07,32,5.70
2009,03,18,07,33,5.70
2009,03,18,07,34,5.70
2009,03,18,07,35,5.70
2009,03,18,07,36,5.70
2009,03,18,07,37,5.60
2009,03,18,07,38,5.60
2009,03,18,07,39,5.60
2009,03,18,07,40,5.60
2009,03,18,07,41,5.60
2009,03,18,07,42,5.50
2009,03,18,07,43,5.50
2009,03,18,07,44,5.50
2009,03,18,07,45,5.50
2009,03,18,07,46,5.50
2009,03,18,07,47,5.50
2009,03,18,07,48,5.50
2009,03,18,07,49,5.50
2009,03,18,07,50,5.50
2009,03,18,07,51,5.50
2009,03,18,07,52,5.50
2009,03,18,07,53,5.50
2009,03,18,07,54,5.50
2009,03,18,07,55,5.50
2009,03,18,07,56,5.50
2009,03,18,07,57,5.50
2009,03,18,07,58,5.50
2009,03,18,07,59,5.60
2009,03,18,08,00,5.60
2009,03,18,08,01,5.60
2009,03,18,08,02,5.60
2009,03,18,08,03,5.70
2009,03,18,08,04,5.70
2009,03,18,08,05,5.70
2009,03,18,08,06,5.70
2009,03,18,08,07,5.70
2009,03,18,08,08,5.70
2009,03,18,08,09,5.70
2009,03,18,08,10,5.60
2009,03,18,08,11,5.60
2009,03,18,08,12,5.60
2009,03,18,08,13,5.60
2009,03,18,08,14,5.60
2009,03,18,08,15,5.60
2009,03,18,08,16,5.60
2009,03,18,08,17,5.60
2009,03,18,08,18,5.60
2009,03,18,08,19,5.60
2009,03,18,08,20,5.60
2009,03,18,08,21,5.60
2009,03,18,08,22,5.50
2009,03,18,08,23,5.50
2009,03,18,08,24,5.50
2009,03,18,08,25,5.50
2009,03,18,08,26,5.50
2009,03,18,08,27,5.50
2009,03,18,08,28,5.50
2009,03,18,08,29,5.50
2009,03,18,08,30,5.50
2009,03,18,08,31,5.50
2009,03,18,08,32,5.50
2009,03,18,08,33,5.50
2009,03,18,08,34,5.50
2009,03,18,08,35,5.50
2009,03,18,08,36,5.50
2009,03,18,08,37,5.50
2009,03,18,08,38,5.50
2009,03,18,08,39,5.50
2009,03,18,08,40,5.50
2009,03,18,08,41,5.50
2009,03,18,08,42,5.50
2009,03,18,08,43,5.50
2009,03,18,08,44,5.50
2009,03,18,08,45,5.60
2009,03,18,08,46,5.50
2009,03,18,08,47,5.50
2009,03,18,08,48,5.50
2009,03,18,08,49,5.50
2009,03,18,08,50,5.50
2009,03,18,08,51,5.50
2009,03,18,08,52,5.50
2009,03,18,08,53,5.50
2009,03,18,08,54,5.50
2009,03,18,08,55,5.50
2009,03,18,08,56,5.50
2009,03,18,08,57,5.60
2009,03,18,08,58,5.60
2009,03,18,08,59,5.60
2009,03,18,09,00,5.60
2009,03,18,09,01,5.70
2009,03,18,09,02,5.70
2009,03,18,09,03,5.70
2009,03,18,09,04,5.70
2009,03,18,09,05,5.70
2009,03,18,09,06,5.70
2009,03,18,09,07,5.70
2009,03,18,09,08,5.70
2009,03,18,09,09,5.70
2009,03,18,09,10,5.70
2009,03,18,09,11,5.70
2009,03,18,09,12,5.70
2009,03,18,09,13,5.70
2009,03,18,09,14,5.70
2009,03,18,09,15,5.70
2009,03,18,09,16,5.70
2009,03,18,09,17,5.70
2009,03,18,09,18,5.80
2009,03,18,09,19,5.80
2009,03,18,09,20,5.80
2009,03,18,09,21,5.80
2009,03,18,09,22,5.70
2009,03,18,09,23,5.70
2009,03,18,09,24,5.70
2009,03,18,09,25,5.70
2009,03,18,09,26,5.70
2009,03,18,09,27,5.70
2009,03,18,09,28,5.70
2009,03,18,09,29,5.70
2009,03,18,09,30,5.70
2009,03,18,09,31,5.70
2009,03,18,09,32,5.70
2009,03,18,09,33,5.80
2009,03,18,09,34,5.80
2009,03,18,09,35,5.80
2009,03,18,09,36,5.80
2009,03,18,09,37,5.70
2009,03,18,09,38,5.70
2009,03,18,09,39,5.80
2009,03,18,09,40,5.80
2009,03,18,09,41,5.80
2009,03,18,09,42,5.80
2009,03,18,09,43,5.80
2009,03,18,09,44,5.80
2009,03,18,09,45,5.90
2009,03,18,09,46,5.90
2009,03,18,09,47,5.90
2009,03,18,09,48,5.90
2009,03,18,09,49,5.80
2009,03,18,09,50,5.90
2009,03,18,09,51,5.90
2009,03,18,09,52,5.90
2009,03,18,09,53,5.90
2009,03,18,09,54,5.80
2009,03,18,09,55,5.80
2009,03,18,09,56,5.80
2009,03,18,09,57,5.80
2009,03,18,09,58,5.80
2009,03,18,09,59,5.80
2009,03,18,10,00,5.80
2009,03,18,10,01,5.80
2009,03,18,10,02,5.80
2009,03,18,10,03,5.90
2009,03,18,10,04,5.90
2009,03,18,10,05,5.90
2009,03,18,10,06,5.90
2009,03,18,10,07,5.90
2009,03,18,10,08,5.90
2009,03,18,10,09,5.90
2009,03,18,10,10,5.90
2009,03,18,10,11,5.90
2009,03,18,10,12,5.90
2009,03,18,10,13,5.90
2009,03,18,10,14,5.80
2009,03,18,10,15,5.80
2009,03,18,10,16,5.80
2009,03,18,10,17,5.90
2009,03,18,10,18,5.90
2009,03,18,10,19,5.90
2009,03,18,10,20,5.90
2009,03,18,10,21,5.90
2009,03,18,10,22,5.90
2009,03,18,10,23,6.00
2009,03,18,10,24,6.00
2009,03,18,10,25,6.10
2009,03,18,10,26,6.10
2009,03,18,10,27,6.20
2009,03,18,10,28,6.20
2009,03,18,10,29,6.20
2009,03,18,10,30,6.20
2009,03,18,10,31,6.30
2009,03,18,10,32,6.30
2009,03,18,10,33,6.30
2009,03,18,10,34,6.30
2009,03,18,10,35,6.40
2009,03,18,10,36,6.40
2009,03,18,10,37,6.30
2009,03,18,10,38,6.40
2009,03,18,10,39,6.40
2009,03,18,10,40,6.40
2009,03,18,10,41,6.40
2009,03,18,10,42,6.40
2009,03,18,10,43,6.40
2009,03,18,10,44,6.40
2009,03,18,10,45,6.40
2009,03,18,10,46,6.40
2009,03,18,10,47,6.40
2009,03,18,10,48,6.40
2009,03,18,10,49,6.40
2009,03,18,10,50,6.40
2009,03,18,10,51,6.40
2009,03,18,10,52,6.40
2009,03,18,10,53,6.50
2009,03,18,10,54,6.60
2009,03,18,10,55,6.60
2009,03,18,10,56,6.60
2009,03,18,10,57,6.60
2009,03,18,10,58,6.60
2009,03,18,10,59,6.60
2009,03,18,11,00,6.60
2009,03,18,11,01,6.50
2009,03,18,11,02,6.40
2009,03,18,11,03,6.60
2009,03,18,11,04,6.60
2009,03,18,11,05,6.60
2009,03,18,11,06,6.70
2009,03,18,11,07,6.70
2009,03,18,11,08,6.60
2009,03,18,11,09,6.60
2009,03,18,11,10,6.60
2009,03,18,11,11,6.70
2009,03,18,11,12,6.70
2009,03,18,11,13,6.80
2009,03,18,11,14,6.80
2009,03,18,11,15,6.80
2009,03,18,11,16,6.80
2009,03,18,11,17,6.80
2009,03,18,11,18,6.90
2009,03,18,11,19,7.00
2009,03,18,11,20,7.00
2009,03,18,11,21,7.10
2009,03,18,11,22,7.10
2009,03,18,11,23,7.20
2009,03,18,11,24,7.20
2009,03,18,11,25,7.20
2009,03,18,11,26,7.20
2009,03,18,11,27,7.20
2009,03,18,11,28,7.20
2009,03,18,11,29,7.20
2009,03,18,11,30,7.30
2009,03,18,11,31,7.30
2009,03,18,11,32,7.30
2009,03,18,11,33,7.30
2009,03,18,11,34,7.30
2009,03,18,11,35,7.30
2009,03,18,11,36,7.30
2009,03,18,11,37,7.30
2009,03,18,11,38,7.30
2009,03,18,11,39,7.30
2009,03,18,11,40,7.30
2009,03,18,11,41,7.30
2009,03,18,11,42,7.30
2009,03,18,11,43,7.30
2009,03,18,11,44,7.30
2009,03,18,11,45,7.30
2009,03,18,11,46,7.30
2009,03,18,11,47,7.30
2009,03,18,11,48,7.30
2009,03,18,11,49,7.30
2009,03,18,11,50,7.30
2009,03,18,11,51,7.40
2009,03,18,11,52,7.40
2009,03,18,11,53,7.30
2009,03,18,11,54,7.30
2009,03,18,11,55,7.30
2009,03,18,11,56,7.30
2009,03,18,11,57,7.30
2009,03,18,11,58,7.30
2009,03,18,11,59,7.30
2009,03,18,12,00,7.30
2009,03,18,12,01,7.30
2009,03,18,12,02,7.30
2009,03,18,12,03,7.30
2009,03,18,12,04,7.30
2009,03,18,12,05,7.30
2009,03,18,12,06,7.40
2009,03,18,12,07,7.50
2009,03,18,12,08,7.50
2009,03,18,12,09,7.50
2009,03,18,12,10,7.40
2009,03,18,12,11,7.30
2009,03,18,12,12,7.30
2009,03,18,12,13,7.30
2009,03,18,12,14,7.30
2009,03,18,12,15,7.30
2009,03,18,12,16,7.30
2009,03,18,12,17,7.30
2009,03,18,12,18,7.30
2009,03,18,12,19,7.30
2009,03,18,12,20,7.30
2009,03,18,12,21,7.30
2009,03,18,12,22,7.30
2009,03,18,12,23,7.30
2009,03,18,12,24,7.30
2009,03,18,12,25,7.40
2009,03,18,12,26,7.40
2009,03,18,12,27,7.40
2009,03,18,12,28,7.50
2009,03,18,12,29,7.50
2009,03,18,12,30,7.50
2009,03,18,12,31,7.50
2009,03,18,12,32,7.60
2009,03,18,12,33,7.60
2009,03,18,12,34,7.60
2009,03,18,12,35,7.60
2009,03,18,12,36,7.70
2009,03,18,12,37,7.70
2009,03,18,12,38,7.70
2009,03,18,12,39,7.70
2009,03,18,12,40,7.70
2009,03,18,12,41,7.70
2009,03,18,12,42,7.60
2009,03,18,12,43,7.60
2009,03,18,12,44,7.60
2009,03,18,12,45,7.60
2009,03,18,12,46,7.60
2009,03,18,12,47,7.50
2009,03,18,12,48,7.50
2009,03,18,12,49,7.60
2009,03,18,12,50,7.60
2009,03,18,12,51,7.50
2009,03,18,12,52,7.50
2009,03,18,12,53,7.60
2009,03,18,12,54,7.60
2009,03,18,12,55,7.60
2009,03,18,12,56,7.70
2009,03,18,12,57,7.70
2009,03,18,12,58,7.80
2009,03,18,12,59,7.70
2009,03,18,13,00,7.70
2009,03,18,13,01,7.70
2009,03,18,13,02,7.80
2009,03,18,13,03,7.80
2009,03,18,13,04,7.80
2009,03,18,13,05,7.80
2009,03,18,13,06,7.90
2009,03,18,13,07,7.90
2009,03,18,13,08,8.00
2009,03,18,13,09,8.00
2009,03,18,13,10,8.00
2009,03,18,13,11,8.00
2009,03,18,13,12,8.10
2009,03,18,13,13,8.10
2009,03,18,13,14,8.10
2009,03,18,13,15,8.20
2009,03,18,13,16,8.20
2009,03,18,13,17,8.20
2009,03,18,13,18,8.20
2009,03,18,13,19,8.20
2009,03,18,13,20,8.20
2009,03,18,13,21,8.20
2009,03,18,13,22,8.20
2009,03,18,13,23,8.20
2009,03,18,13,24,8.30
2009,03,18,13,25,8.30
2009,03,18,13,26,8.30
2009,03,18,13,27,8.30
2009,03,18,13,28,8.30
2009,03,18,13,29,8.40
2009,03,18,13,30,8.40
2009,03,18,13,31,8.50
2009,03,18,13,32,8.50
2009,03,18,13,33,8.60
2009,03,18,13,34,8.60
2009,03,18,13,35,8.70
2009,03,18,13,36,8.70
2009,03,18,13,37,8.70
2009,03,18,13,38,8.70
2009,03,18,13,39,8.70
2009,03,18,13,40,8.70
2009,03,18,13,41,8.80
2009,03,18,13,42,8.80
2009,03,18,13,43,8.90
2009,03,18,13,44,8.90
2009,03,18,13,45,8.90
2009,03,18,13,46,8.90
2009,03,18,13,47,8.90
2009,03,18,13,48,9.00
2009,03,18,13,49,9.00
2009,03,18,13,50,9.10
2009,03,18,13,51,9.10
2009,03,18,13,52,9.20
2009,03,18,13,53,9.20
2009,03,18,13,54,9.20
2009,03,18,13,55,9.20
2009,03,18,13,56,9.20
2009,03,18,13,57,9.20
2009,03,18,13,58,9.20
2009,03,18,13,59,9.20
2009,03,18,14,00,9.20
2009,03,18,14,01,9.20
2009,03,18,14,02,9.20
2009,03,18,14,03,9.20
2009,03,18,14,04,9.10
2009,03,18,14,05,9.10
2009,03,18,14,06,9.00
2009,03,18,14,07,9.10
2009,03,18,14,08,9.10
2009,03,18,14,09,9.00
2009,03,18,14,10,9.10
2009,03,18,14,11,9.00
2009,03,18,14,12,9.00
2009,03,18,14,13,9.00
2009,03,18,14,14,9.10
2009,03,18,14,15,9.10
2009,03,18,14,16,9.20
2009,03,18,14,17,9.30
2009,03,18,14,18,9.40
2009,03,18,14,19,9.40
2009,03,18,14,20,9.50
2009,03,18,14,21,9.50
2009,03,18,14,22,9.60
2009,03,18,14,23,9.70
2009,03,18,14,24,9.80
2009,03,18,14,25,9.80
2009,03,18,14,26,9.80
2009,03,18,14,27,9.80
2009,03,18,14,28,9.80
2009,03,18,14,29,9.80
2009,03,18,14,30,9.80
2009,03,18,14,31,9.80
2009,03,18,14,32,9.80
2009,03,18,14,33,9.80
2009,03,18,14,34,9.80
2009,03,18,14,35,9.80
2009,03,18,14,36,9.70
2009,03,18,14,37,9.70
2009,03,18,14,38,9.70
2009,03,18,14,39,9.70
2009,03,18,14,40,9.70
2009,03,18,14,41,9.70
2009,03,18,14,42,9.70
2009,03,18,14,43,9.70
2009,03,18,14,44,9.70
2009,03,18,14,45,9.70
2009,03,18,14,46,9.70
2009,03,18,14,47,9.70
2009,03,18,14,48,9.70
2009,03,18,14,49,9.60
2009,03,18,14,50,9.60
2009,03,18,14,51,9.60
2009,03,18,14,52,9.50
2009,03,18,14,53,9.50
2009,03,18,14,54,9.50
2009,03,18,14,55,9.50
2009,03,18,14,56,9.50
2009,03,18,14,57,9.50
2009,03,18,14,58,9.50
2009,03,18,14,59,9.40
2009,03,18,15,00,9.40
2009,03,18,15,01,9.40
2009,03,18,15,02,9.40
2009,03,18,15,03,9.40
2009,03,18,15,04,9.30
2009,03,18,15,05,9.30
2009,03,18,15,06,9.30
2009,03,18,15,07,9.30
2009,03,18,15,08,9.30
2009,03,18,15,09,9.30
2009,03,18,15,10,9.40
2009,03,18,15,11,9.40
2009,03,18,15,12,9.40
2009,03,18,15,13,9.40
2009,03,18,15,14,9.40
2009,03,18,15,15,9.40
2009,03,18,15,16,9.40
2009,03,18,15,17,9.40
2009,03,18,15,18,9.50
2009,03,18,15,19,9.50
2009,03,18,15,20,9.60
2009,03,18,15,21,9.60
2009,03,18,15,22,9.60
2009,03,18,15,23,9.60
2009,03,18,15,24,9.60
2009,03,18,15,25,9.60
2009,03,18,15,26,9.60
2009,03,18,15,27,9.60
2009,03,18,15,28,9.60
2009,03,18,15,29,9.70
2009,03,18,15,30,9.70
2009,03,18,15,31,9.70
2009,03,18,15,32,9.70
2009,03,18,15,33,9.70
2009,03,18,15,34,9.70
2009,03,18,15,35,9.70
2009,03,18,15,36,9.70
2009,03,18,15,37,9.60
2009,03,18,15,38,9.50
2009,03,18,15,39,9.50
2009,03,18,15,40,9.50
2009,03,18,15,41,9.50
2009,03,18,15,42,9.60
2009,03,18,15,43,9.60
2009,03,18,15,44,9.60
2009,03,18,15,45,9.70
2009,03,18,15,46,9.70
2009,03,18,15,47,9.70
2009,03,18,15,48,9.70
2009,03,18,15,49,9.70
2009,03,18,15,50,9.70
2009,03,18,15,51,9.80
2009,03,18,15,52,9.80
2009,03,18,15,53,9.80
2009,03,18,15,54,9.80
2009,03,18,15,55,9.80
2009,03,18,15,56,9.80
2009,03,18,15,57,9.80
2009,03,18,15,58,9.80
2009,03,18,15,59,9.90
2009,03,18,16,00,9.90
2009,03,18,16,01,9.90
2009,03,18,16,02,9.90
2009,03,18,16,03,9.90
2009,03,18,16,04,9.90
2009,03,18,16,05,9.80
2009,03,18,16,06,9.70
2009,03,18,16,07,9.70
2009,03,18,16,08,9.70
2009,03,18,16,09,9.70
2009,03,18,16,10,9.70
2009,03,18,16,11,9.70
2009,03,18,16,12,9.70
2009,03,18,16,13,9.70
2009,03,18,16,14,9.70
2009,03,18,16,15,9.70
2009,03,18,16,16,9.80
2009,03,18,16,17,9.80
2009,03,18,16,18,9.90
2009,03,18,16,19,9.90
2009,03,18,16,20,9.90
2009,03,18,16,21,9.90
2009,03,18,16,22,9.90
2009,03,18,16,23,9.90
2009,03,18,16,24,9.90
2009,03,18,16,25,9.90
2009,03,18,16,26,9.90
2009,03,18,16,27,9.90
2009,03,18,16,28,9.90
2009,03,18,16,29,9.90
2009,03,18,16,30,9.90
2009,03,18,16,31,9.90
2009,03,18,16,32,9.90
2009,03,18,16,33,9.90
2009,03,18,16,34,9.90
2009,03,18,16,35,9.90
2009,03,18,16,36,10.00
2009,03,18,16,37,10.10
2009,03,18,16,38,10.10
2009,03,18,16,39,10.10
2009,03,18,16,40,10.10
2009,03,18,16,41,10.10
2009,03,18,16,42,10.10
2009,03,18,16,43,10.10
2009,03,18,16,44,10.10
2009,03,18,16,45,10.10
2009,03,18,16,46,10.20
2009,03,18,16,47,10.20
2009,03,18,16,48,10.20
2009,03,18,16,49,10.20
2009,03,18,16,50,10.20
2009,03,18,16,51,10.20
2009,03,18,16,52,10.20
2009,03,18,16,53,10.20
2009,03,18,16,54,10.20
2009,03,18,16,55,10.20
2009,03,18,16,56,10.20
2009,03,18,16,57,10.20
2009,03,18,16,58,10.20
2009,03,18,16,59,10.10
2009,03,18,17,00,10.10
2009,03,18,17,01,10.10
2009,03,18,17,02,10.10
2009,03,18,17,03,10.00
2009,03,18,17,04,9.90
2009,03,18,17,05,9.90
2009,03,18,17,06,9.90
2009,03,18,17,07,9.90
2009,03,18,17,08,9.90
2009,03,18,17,09,9.90
2009,03,18,17,10,9.80
2009,03,18,17,11,9.80
2009,03,18,17,12,9.80
2009,03,18,17,13,9.80
2009,03,18,17,14,9.80
2009,03,18,17,15,9.70
2009,03,18,17,16,9.70
2009,03,18,17,17,9.80
2009,03,18,17,18,9.80
2009,03,18,17,19,9.70
2009,03,18,17,20,9.70
2009,03,18,17,21,9.70
2009,03,18,17,22,9.70
2009,03,18,17,23,9.70
2009,03,18,17,24,9.70
2009,03,18,17,25,9.70
2009,03,18,17,26,9.70
2009,03,18,17,27,9.70
2009,03,18,17,28,9.80
2009,03,18,17,29,9.80
2009,03,18,17,30,9.80
2009,03,18,17,31,9.80
2009,03,18,17,32,9.90
2009,03,18,17,33,9.90
2009,03,18,17,34,9.90
2009,03,18,17,35,9.90
2009,03,18,17,36,9.90
2009,03,18,17,37,9.90
2009,03,18,17,38,9.90
2009,03,18,17,39,9.90
2009,03,18,17,40,9.80
2009,03,18,17,41,9.80
2009,03,18,17,42,9.70
2009,03,18,17,43,9.70
2009,03,18,17,44,9.70
2009,03,18,17,45,9.60
2009,03,18,17,46,9.60
2009,03,18,17,47,9.50
2009,03,18,17,48,9.50
2009,03,18,17,49,9.50
2009,03,18,17,50,9.50
2009,03,18,17,51,9.50
2009,03,18,17,52,9.40
2009,03,18,17,53,9.40
2009,03,18,17,54,9.40
2009,03,18,17,55,9.40
2009,03,18,17,56,9.40
2009,03,18,17,57,9.40
2009,03,18,17,58,9.40
2009,03,18,17,59,9.40
2009,03,18,18,00,9.40
2009,03,18,18,01,9.40
2009,03,18,18,02,9.40
2009,03,18,18,03,9.40
2009,03,18,18,04,9.40
2009,03,18,18,05,9.50